Location: Az?znagar
(16.8373°N, 80.5091°E)
Time: 03:09:35
(UTC+00:00)

Nadezhda 4 Rocket - Pass Details

Date: 11 July 2022
Orbit: 949 x 992 km, 82.9° (Epoch: 09 August)

Event Time Altitude Azimuth Distance (km) Brightness Sun altitude
Exits shadow 22:39:11 - 174° (S) 3,224 6.5 -20.5°
Reaches altitude 10° 22:40:35 10° 172° (S) 2,699 6.1 -20.2°
Maximum altitude 22:46:40 63° 92° (E) 1,060 4.4 -19.0°
Drops below altitude 10° 22:52:42 10° 13° (NNE) 2,678 6.9 -17.7°
Sets 22:55:12 0° 10° (N) 3,621 7.6 -17.2°
